Weather History for Dutch Harbor, AK

Change the Weather History Date:

Friday, December 7, 2012

  Actual Average Record
Temperature  
Mean Temperature 30 °F -  
Max Temperature 34 °F 39 °F 50 °F (1996)
Min Temperature 26 °F 29 °F 15 °F (1987)
Degree Days  
Heating Degree Days 35    
Moisture  
Dew Point 25 °F    
Average Humidity 80    
Maximum Humidity 92    
Minimum Humidity 69    
Precipitation  
Precipitation 0.09 in - - ()
Sea Level Pressure  
Sea Level Pressure 29.42 in    
Wind  
Wind Speed 9 mph (NE)    
Max Wind Speed 14 mph    
Max Gust Speed 21 mph    
Visibility 6 miles    
Events Rain , Snow    
Averages and records for this station are not official NWS values.
T = Trace of Precipitation, MM = Missing Value Source: NWS Daily Summary

Daily Weather History Graph

Daily Weather History Graph

Search for Another Location

Airport:

Trip Planner

Search our weather history database for the weather conditions in past years. The results will help you decide how hot, cold, wet, or windy it might be!

Date:

Astronomy

Dec. 07, 2012 Rise Set
Actual Time 10:10 AM AKST 5:45 PM AKST
Civil Twilight 9:27 AM AKST 6:28 PM AKST
Nautical Twilight 8:42 AM AKST 7:13 PM AKST
Astronomical Twilight 7:59 AM AKST 7:56 PM AKST
Moon 2:54 AM AKST (12/7) 2:33 PM AKST (12/7)
Length of Visible Light 9h 00m
Length of Day
7h 34m
Last Quarter, 37% of the Moon is Illuminated
Dec 7
Last Quarter
Dec 12
New
Dec 19
First Quarter
Dec 28
Full
Jan 4
Last Quarter

Hourly Weather History & Observations

Time (AKST) Temp. Windchill Dew Point Humidity Pressure Visibility Wind Dir Wind Speed Gust Speed Precip Events Conditions
1:56 AM 28.0 °F 20.0 °F 21.9 °F 78% 29.81 in 10.0 mi North 8.1 mph 17.3 mph 0.00 in   Overcast
2:56 AM 28.0 °F 19.3 °F 19.9 °F 72% 29.79 in 10.0 mi NE 9.2 mph - 0.00 in   Overcast
3:56 AM 28.0 °F 20.8 °F 19.9 °F 72% 29.77 in 9.0 mi East 6.9 mph - 0.00 in Snow Light Snow
4:56 AM 27.0 °F 18.7 °F 19.9 °F 75% 29.75 in 9.0 mi North 8.1 mph - 0.00 in Snow Light Snow
5:56 AM 27.0 °F 18.0 °F 19.9 °F 75% 29.72 in 9.0 mi NNE 9.2 mph - 0.00 in   Overcast
6:14 AM 26.6 °F 16.8 °F 19.4 °F 74% 29.70 in 10.0 mi NNE 10.4 mph - 0.00 in Snow Light Snow
6:56 AM 27.0 °F 20.5 °F 19.9 °F 75% 29.70 in 10.0 mi NNE 5.8 mph - 0.00 in   Overcast
7:56 AM 27.0 °F 16.7 °F 19.0 °F 72% 29.66 in 10.0 mi NNE 11.5 mph - N/A   Overcast
8:56 AM 27.0 °F 18.7 °F 19.0 °F 72% 29.65 in 10.0 mi NNE 8.1 mph - 0.00 in   Overcast
9:08 AM 28.4 °F 21.2 °F 19.4 °F 69% 29.62 in 10.0 mi NE 6.9 mph - N/A   Overcast
9:42 AM 28.4 °F 17.5 °F 19.4 °F 69% 29.61 in 10.0 mi NNE 13.8 mph 20.7 mph N/A   Overcast
9:56 AM 28.0 °F 17.0 °F 19.9 °F 72% 29.63 in 10.0 mi NNE 13.8 mph - N/A   Overcast
10:56 AM 28.9 °F 21.1 °F 21.0 °F 72% 29.61 in 10.0 mi NNE 8.1 mph - N/A   Overcast
11:07 AM 28.4 °F 21.2 °F 21.2 °F 74% 29.58 in 10.0 mi NNE 6.9 mph - N/A   Overcast
12:04 PM 28.4 °F 22.2 °F 21.2 °F 74% 29.57 in 6.0 mi NNE 5.8 mph - 0.00 in Snow Light Snow
12:08 PM 30.2 °F 21.9 °F 23.0 °F 75% 29.56 in 6.0 mi NNE 9.2 mph - 0.00 in Snow Light Snow
12:47 PM 30.2 °F 21.3 °F 24.8 °F 80% 29.54 in 5.0 mi NNE 10.4 mph - 0.00 in Snow Light Snow
12:56 PM 30.0 °F 20.5 °F 24.1 °F 79% 29.56 in 5.0 mi NNE 11.5 mph 17.3 mph 0.00 in Snow Light Snow
12:57 PM 30.2 °F 21.3 °F 24.8 °F 80% 29.54 in 6.0 mi NNE 10.4 mph 17.3 mph 0.00 in Snow Light Snow
1:44 PM 30.2 °F 21.3 °F 24.8 °F 80% 29.51 in 5.0 mi NNE 10.4 mph - 0.00 in Snow Light Snow
1:56 PM 30.0 °F 21.1 °F 24.1 °F 79% 29.51 in 3.0 mi NNE 10.4 mph - 0.00 in Snow Light Snow
1:58 PM 30.2 °F 21.9 °F 24.8 °F 80% 29.50 in 3.0 mi NE 9.2 mph - 0.00 in Snow Light Snow
2:56 PM 30.9 °F 25.2 °F 25.0 °F 79% 29.47 in 4.0 mi NNE 5.8 mph - 0.00 in Snow Light Snow
3:12 PM 30.2 °F 25.4 °F 24.8 °F 80% 29.44 in 7.0 mi Variable 4.6 mph - 0.00 in Snow Light Snow
3:13 PM 30.2 °F 25.4 °F 24.8 °F 80% 29.44 in 6.0 mi Variable 4.6 mph - 0.00 in Snow Light Snow
3:30 PM 32.0 °F 24.8 °F 24.8 °F 75% 29.43 in 8.0 mi NNE 8.1 mph - 0.00 in Snow Light Snow
4:24 PM 32.0 °F 23.0 °F 26.6 °F 80% 29.39 in 5.0 mi North 11.5 mph 19.6 mph 0.00 in Snow Light Snow
4:56 PM 33.1 °F 26.9 °F 26.1 °F 75% 29.39 in 9.0 mi NE 6.9 mph - 0.00 in Snow Light Snow
5:12 PM 33.8 °F 27.0 °F 26.6 °F 75% 29.36 in 4.0 mi NNE 8.1 mph 18.4 mph 0.00 in Snow Light Snow
5:19 PM 32.0 °F 26.4 °F 26.6 °F 80% 29.36 in 2.0 mi NE 5.8 mph - 0.00 in Snow Light Snow
5:56 PM 33.1 °F 26.1 °F 28.0 °F 82% 29.37 in 2.0 mi East 8.1 mph - 0.00 in Snow Light Snow
6:08 PM 33.8 °F 25.8 °F 28.4 °F 81% 29.34 in 5.0 mi East 10.4 mph 16.1 mph 0.00 in Snow Light Snow
6:17 PM 32.0 °F 23.0 °F 28.4 °F 87% 29.33 in 2.0 mi East 11.5 mph - 0.00 in Snow Light Snow
6:46 PM 32.0 °F 26.4 °F 28.4 °F 87% 29.32 in 8.0 mi ENE 5.8 mph - 0.00 in Snow Light Snow
6:56 PM 33.1 °F 28.7 °F 28.0 °F 82% 29.33 in 9.0 mi NE 4.6 mph - 0.00 in Snow Light Snow
7:38 PM 33.8 °F 27.0 °F 28.4 °F 81% 29.29 in 4.0 mi East 8.1 mph - 0.00 in Snow Light Snow
7:48 PM 32.0 °F 25.6 °F 28.4 °F 87% 29.29 in 3.0 mi East 6.9 mph - 0.00 in Snow Light Snow
7:56 PM 32.0 °F 24.8 °F 30.0 °F 92% 29.30 in 3.0 mi East 8.1 mph - 0.00 in Snow Light Snow
8:09 PM 32.0 °F 25.6 °F 28.4 °F 87% 29.27 in 3.0 mi East 6.9 mph - 0.00 in   Overcast
8:29 PM 32.0 °F 25.6 °F 28.4 °F 87% 29.25 in 2.5 mi East 6.9 mph - 0.01 in   Overcast
8:56 PM 33.1 °F 24.4 °F 30.0 °F 89% 29.24 in 2.5 mi ENE 11.5 mph - 0.01 in Snow Light Snow
9:31 PM 33.8 °F 27.0 °F 30.2 °F 87% 29.19 in 3.0 mi ENE 8.1 mph - 0.01 in Rain Light Rain
9:40 PM 33.8 °F 26.4 °F 30.2 °F 87% 29.18 in 5.0 mi East 9.2 mph - 0.01 in Rain Light Rain
9:56 PM 33.1 °F 26.9 °F 30.0 °F 89% 29.18 in 5.0 mi NE 6.9 mph - 0.01 in Rain Light Rain
10:08 PM 33.8 °F 25.3 °F 30.2 °F 87% 29.16 in 6.0 mi NE 11.5 mph - 0.00 in Rain Light Rain
10:24 PM 33.8 °F 27.7 °F 30.2 °F 87% 29.15 in 6.0 mi East 6.9 mph - 0.00 in Snow Light Snow
10:35 PM 33.8 °F 27.0 °F 30.2 °F 87% 29.14 in 4.0 mi ESE 8.1 mph - 0.00 in Snow Light Snow
10:50 PM 33.8 °F 27.0 °F 30.2 °F 87% 29.12 in 3.0 mi ENE 8.1 mph - 0.01 in Snow Light Snow
10:56 PM 34.0 °F 27.2 °F 30.9 °F 89% 29.13 in 3.0 mi ENE 8.1 mph - 0.01 in Snow Light Snow
11:12 PM 33.8 °F 26.4 °F 30.2 °F 87% 29.09 in 2.5 mi ENE 9.2 mph - 0.01 in Snow Light Snow
11:50 PM 33.8 °F 27.0 °F 30.2 °F 87% 29.05 in 3.0 mi East 8.1 mph - 0.05 in Snow Light Snow
11:56 PM 34.0 °F 27.2 °F 30.9 °F 89% 29.06 in 3.0 mi ESE 8.1 mph - 0.06 in Snow Light Snow